GW5874 Weather Reports


Display with metric or nautical units.
time (UTC)temp
F
wind
direction
speed
MPH
gust
MPH
rain 1hr
in
rain 24hr
in
rain mn
in
humidity
%
barometer
mb
20260904060821 72 272 0.0 0.0 0.00 0.00 0.00 87 1014.2
20260904060317 72 281 0.0 0.0 0.00 0.00 0.00 87 1014.2
20260904055812 72 276 0.0 0.0 0.00 0.00 0.00 87 1014.3
20260904055308 72 274 0.0 0.0 0.00 0.00 0.00 87 1014.2
20260904054803 72 279 0.0 0.0 0.00 0.00 0.00 87 1014.3
20260904054259 72 284 0.0 0.0 0.00 0.00 0.00 87 1014.2
20260904053754 72 261 0.0 0.0 0.00 0.00 0.00 87 1014.1
20260904053253 72 262 0.0 0.0 0.00 0.00 0.00 87 1014.1
20260904052750 72 263 0.0 0.0 0.00 0.00 0.00 86 1014.2
20260904052245 72 263 0.0 0.0 0.00 0.00 0.00 86 1014.0
20260904051742 73 261 0.0 0.0 0.00 0.00 0.00 85 1014.2
20260904051237 73 261 0.0 0.0 0.00 0.00 0.00 85 1014.2
20260904050732 73 261 0.0 0.0 0.00 0.00 0.00 85 1014.2
20260904050229 73 264 0.0 0.0 0.00 0.00 0.00 84 1014.1
20260904045728 73 262 0.0 0.0 0.00 0.00 0.00 84 1014.2
20260904045223 73 272 0.0 0.0 0.00 0.00 0.00 84 1014.1
20260904044718 73 272 0.0 0.0 0.00 0.00 0.00 83 1014.1
20260904044215 74 244 0.0 0.0 0.00 0.00 0.00 83 1014.0
20260904043711 74 242 0.0 0.0 0.00 0.00 0.00 83 1014.2
20260904043207 74 246 0.0 0.0 0.00 0.00 0.00 82 1014.0
20260904042703 75 248 0.0 0.0 0.00 0.00 0.00 82 1013.9
20260904042159 75 278 0.0 0.0 0.00 0.00 0.00 82 1014.0
20260904041653 75 276 0.0 0.0 0.00 0.00 0.00 82 1014.0
20260904041149 75 272 0.0 0.0 0.00 0.00 0.00 82 1014.1
20260904040645 75 222 0.0 0.0 0.00 0.00 0.00 82 1013.9
20260904040141 75 241 0.0 0.0 0.00 0.00 0.00 81 1014.0
20260904035636 75 284 0.0 0.0 0.00 0.00 0.00 80 1014.1
20260904035136 75 283 0.0 0.0 0.00 0.00 0.00 80 1013.8
20260904034635 76 269 0.0 0.0 0.00 0.00 0.00 80 1014.0
20260904034131 76 269 0.0 0.0 0.00 0.00 0.00 80 1014.0
20260904033627 76 237 0.0 0.0 0.00 0.00 0.00 79 1013.9
20260904033124 76 278 0.0 0.0 0.00 0.00 0.00 78 1013.9
20260904032619 76 278 0.0 0.0 0.00 0.00 0.00 78 1014.2
20260904032118 76 277 0.0 0.0 0.00 0.00 0.00 77 1013.9
20260904031618 77 248 0.0 0.0 0.00 0.00 0.00 77 1013.8
20260904031114 77 238 0.0 0.0 0.00 0.00 0.00 77 1013.7
20260904030610 77 270 0.0 0.0 0.00 0.00 0.00 77 1013.8
20260904030105 77 260 0.0 0.0 0.00 0.00 0.00 76 1013.8
20260904025600 78 216 0.0 0.0 0.00 0.00 0.00 76 1013.6
20260904025055 78 245 0.0 0.0 0.00 0.00 0.00 75 1013.7
20260904024551 78 277 0.0 0.0 0.00 0.00 0.00 74 1013.6
20260904024047 78 286 0.0 0.0 0.00 0.00 0.00 74 1013.6
20260904023543 78 261 0.0 0.0 0.00 0.00 0.00 73 1013.4
20260904023038 79 262 0.0 0.0 0.00 0.00 0.00 73 1013.4
20260904022538 79 242 0.0 0.0 0.00 0.00 0.00 72 1013.4
20260904022036 79 265 0.0 0.0 0.00 0.00 0.00 72 1013.1
20260904021531 80 261 0.0 0.0 0.00 0.00 0.00 71 1013.3
20260904021026 80 284 0.0 0.0 0.00 0.00 0.00 71 1013.1
20260904020527 80 244 0.0 0.0 0.00 0.00 0.00 70 1013.2
20260904020027 80 238 0.0 0.0 0.00 0.00 0.00 70 1013.0
20260904015521 80 269 0.0 0.0 0.00 0.00 0.00 69 1012.7
20260904015020 81 184 0.0 0.0 0.00 0.00 0.00 68 1012.6
20260904014514 81 270 0.0 0.0 0.00 0.00 0.00 67 1012.7
20260904014010 82 271 0.0 0.0 0.00 0.00 0.00 66 1012.6
20260904013506 82 270 0.0 0.0 0.00 0.00 0.00 65 1012.5
20260904013003 83 226 0.0 0.0 0.00 0.00 0.00 64 1012.5
20260904012502 83 271 0.0 0.0 0.00 0.00 0.00 63 1012.4
20260904012001 84 266 0.0 0.0 0.00 0.00 0.00 61 1012.2
20260904011456 85 259 0.0 0.0 0.00 0.00 0.00 59 1012.1
20260904010952 86 234 0.0 0.0 0.00 0.00 0.00 58 1012.2
20260904010448 87 274 0.0 0.0 0.00 0.00 0.00 56 1012.0
20260904005943 88 225 1.0 1.0 0.00 0.00 0.00 53 1012.2
20260904005439 88 356 0.0 1.0 0.00 0.00 0.00 52 1012.1
20260904004939 90 227 0.0 0.0 0.00 0.00 0.00 50 1012.1
20260904004435 91 242 0.0 0.0 0.00 0.00 0.00 48 1012.4
20260904003935 91 220 2.0 3.0 0.00 0.00 0.00 48 1012.1
20260904003431 92 167 2.0 3.0 0.00 0.00 0.00 46 1012.0
20260904002926 92 199 3.0 5.0 0.00 0.00 0.00 46 1012.0
20260904002423 92 193 1.0 1.0 0.00 0.00 0.00 45 1012.1
20260904001921 92 212 3.0 4.0 0.00 0.00 0.00 46 1012.1
20260904001417 93 252 0.0 0.0 0.00 0.00 0.00 45 1012.0
20260904000912 94 227 2.0 3.0 0.00 0.00 0.00 43 1012.0
20260904000411 95 239 0.0 1.0 0.00 0.00 0.00 43 1011.9
20260903235906 95 229 2.0 3.0 0.00 0.00 0.00 42 1011.9
20260903235403 95 231 2.0 3.0 0.00 0.00 0.00 41 1011.9
20260903234901 95 202 3.0 4.0 0.00 0.00 0.00 41 1011.9
20260903234358 95 188 4.0 4.0 0.00 0.00 0.00 40 1011.9
20260903233854 96 191 7.0 8.0 0.00 0.00 0.00 40 1011.9
20260903233350 96 233 3.0 5.0 0.00 0.00 0.00 41 1011.8
20260903232849 96 203 5.0 7.0 0.00 0.00 0.00 40 1011.8
20260903232344 96 200 2.0 3.0 0.00 0.00 0.00 41 1011.9
20260903231844 96 215 4.0 4.0 0.00 0.00 0.00 40 1011.8
20260903231339 97 276 1.0 1.0 0.00 0.00 0.00 40 1011.9
20260903230835 96 169 8.0 11.0 0.00 0.00 0.00 40 1011.8
20260903230330 97 188 4.0 5.0 0.00 0.00 0.00 40 1011.8
20260903225826 95 176 2.0 4.0 0.00 0.00 0.00 41 1011.9
20260903225322 95 152 3.0 3.0 0.00 0.00 0.00 41 1012.0
20260903224818 95 163 4.0 5.0 0.00 0.00 0.00 42 1011.8
20260903224314 95 234 2.0 3.0 0.00 0.00 0.00 42 1011.9
20260903223809 96 222 1.0 1.0 0.00 0.00 0.00 41 1011.8
20260903223308 96 215 3.0 4.0 0.00 0.00 0.00 40 1011.8
20260903222803 97 97 2.0 3.0 0.00 0.00 0.00 39 1011.9
20260903222305 98 184 4.0 4.0 0.00 0.00 0.00 38 1011.6
20260903221757 98 65 4.0 5.0 0.00 0.00 0.00 38 1011.6
20260903221255 97 154 5.0 7.0 0.00 0.00 0.00 39 1011.5
20260903220754 97 181 9.0 12.0 0.00 0.00 0.00 38 1011.6
20260903220249 99 160 3.0 3.0 0.00 0.00 0.00 37 1011.7
20260903215747 99 300 2.0 4.0 0.00 0.00 0.00 37 1011.7
20260903215244 98 219 8.0 11.0 0.00 0.00 0.00 37 1011.9
20260903214741 99 156 7.0 10.0 0.00 0.00 0.00 37 1011.9
20260903214239 99 206 5.0 5.0 0.00 0.00 0.00 36 1012.1
20260903213738 100 231 4.0 5.0 0.00 0.00 0.00 36 1012.0
20260903213234 99 203 2.0 3.0 0.00 0.00 0.00 37 1012.0
20260903212730 98 221 8.0 10.0 0.00 0.00 0.00 37 1012.0
20260903212226 96 266 0.0 1.0 0.00 0.00 0.00 40 1012.1
20260903211725 96 190 3.0 4.0 0.00 0.00 0.00 41 1012.2
20260903211222 98 93 7.0 11.0 0.00 0.00 0.00 38 1012.1
20260903210717 98 179 5.0 5.0 0.00 0.00 0.00 38 1012.1
20260903210213 99 223 4.0 5.0 0.00 0.00 0.00 37 1012.3
20260903205712 99 253 3.0 7.0 0.00 0.00 0.00 37 1012.2
20260903205211 99 148 4.0 5.0 0.00 0.00 0.00 37 1012.2
20260903204707 100 197 4.0 7.0 0.00 0.00 0.00 35 1012.5
20260903204203 99 204 5.0 7.0 0.00 0.00 0.00 37 1012.3
20260903203658 98 232 4.0 10.0 0.00 0.00 0.00 36 1012.5
20260903203154 97 140 7.0 10.0 0.00 0.00 0.00 38 1012.3
20260903202648 98 164 4.0 5.0 0.00 0.00 0.00 38 1012.3
20260903202144 99 201 4.0 4.0 0.00 0.00 0.00 37 1012.6
20260903201643 100 192 6.0 8.0 0.00 0.00 0.00 36 1012.6
20260903201143 101 13 5.0 7.0 0.00 0.00 0.00 35 1012.6
20260903200638 101 274 2.0 3.0 0.00 0.00 0.00 34 1012.7
20260903200134 99 202 4.0 5.0 0.00 0.00 0.00 37 1012.8
20260903195630 102 179 3.0 4.0 0.00 0.00 0.00 37 1012.8
20260903195125 100 271 1.0 1.0 0.00 0.00 0.00 36 1012.8
20260903194620 98 216 6.0 10.0 0.00 0.00 0.00 38 1013.0
20260903194120 99 123 8.0 11.0 0.00 0.00 0.00 38 1013.2
20260903193616 100 198 6.0 8.0 0.00 0.00 0.00 36 1013.0
20260903193111 98 72 2.0 4.0 0.00 0.00 0.00 39 1013.0
20260903192608 99 220 6.0 7.0 0.00 0.00 0.00 39 1013.2
20260903192103 99 237 5.0 8.0 0.00 0.00 0.00 38 1013.4
20260903191559 98 164 3.0 5.0 0.00 0.00 0.00 39 1013.3
20260903191054 96 278 3.0 4.0 0.00 0.00 0.00 41 1013.5
20260903190553 98 221 3.0 5.0 0.00 0.00 0.00 40 1013.4
20260903190053 98 184 5.0 5.0 0.00 0.00 0.00 40 1013.5
20260903185548 99 206 4.0 5.0 0.00 0.00 0.00 38 1013.5
20260903185044 98 207 1.0 3.0 0.00 0.00 0.00 39 1013.8
20260903184540 97 209 4.0 5.0 0.00 0.00 0.00 40 1013.6
20260903184035 96 199 2.0 3.0 0.00 0.00 0.00 42 1013.8
20260903183534 97 214 5.0 5.0 0.00 0.00 0.00 41 1014.1
20260903183029 98 259 5.0 10.0 0.00 0.00 0.00 41 1014.1
20260903182527 97 247 0.0 1.0 0.00 0.00 0.00 41 1013.9
20260903182025 97 247 4.0 5.0 0.00 0.00 0.00 41 1014.0
20260903181523 96 257 2.0 4.0 0.00 0.00 0.00 42 1014.0
20260903181023 95 206 5.0 7.0 0.00 0.00 0.00 44 1014.1
20260903180518 96 109 8.0 12.0 0.00 0.00 0.00 43 1014.4
20260903180018 95 206 5.0 5.0 0.00 0.00 0.00 43 1014.4
20260903175517 95 180 2.0 4.0 0.00 0.00 0.00 44 1014.5
20260903175016 95 263 6.0 8.0 0.00 0.00 0.00 44 1014.5
20260903174511 94 227 4.0 4.0 0.00 0.00 0.00 45 1014.4
20260903174006 94 166 5.0 7.0 0.00 0.00 0.00 44 1014.8
20260903173501 95 197 6.0 7.0 0.00 0.00 0.00 43 1014.7
20260903172956 95 201 5.0 5.0 0.00 0.00 0.00 44 1014.8
20260903172452 95 223 4.0 5.0 0.00 0.00 0.00 44 1014.8
20260903171947 94 198 4.0 5.0 0.00 0.00 0.00 45 1014.8
20260903171442 94 201 4.0 5.0 0.00 0.00 0.00 45 1014.7
20260903170937 94 229 11.0 14.0 0.00 0.00 0.00 44 1015.0
20260903170436 94 239 3.0 5.0 0.00 0.00 0.00 46 1014.8
20260903165936 93 200 5.0 7.0 0.00 0.00 0.00 47 1015.0
20260903165430 92 221 2.0 3.0 0.00 0.00 0.00 48 1015.0
20260903164930 92 170 4.0 5.0 0.00 0.00 0.00 48 1015.1
20260903164425 92 204 5.0 7.0 0.00 0.00 0.00 48 1015.3
20260903163925 93 197 6.0 10.0 0.00 0.00 0.00 47 1015.3
20260903163421 92 206 4.0 5.0 0.00 0.00 0.00 49 1015.1
20260903162917 92 188 5.0 5.0 0.00 0.00 0.00 49 1015.3
20260903162414 92 182 4.0 4.0 0.00 0.00 0.00 49 1015.4
20260903161909 92 203 6.0 8.0 0.00 0.00 0.00 50 1015.4
20260903161403 91 161 4.0 8.0 0.00 0.00 0.00 50 1015.4
20260903160900 91 194 8.0 11.0 0.00 0.00 0.00 50 1015.4
20260903160358 90 198 3.0 4.0 0.00 0.00 0.00 52 1015.5
20260903155857 90 120 7.0 11.0 0.00 0.00 0.00 51 1015.5
20260903155353 90 200 5.0 8.0 0.00 0.00 0.00 51 1015.5
20260903154848 90 185 5.0 8.0 0.00 0.00 0.00 52 1015.6
20260903154344 89 210 4.0 5.0 0.00 0.00 0.00 53 1015.7
20260903153839 89 230 5.0 7.0 0.00 0.00 0.00 54 1015.8
20260903153335 89 138 6.0 7.0 0.00 0.00 0.00 53 1015.8
20260903152831 89 254 2.0 4.0 0.00 0.00 0.00 55 1015.7
20260903152327 88 205 5.0 5.0 0.00 0.00 0.00 55 1015.5
20260903151822 87 189 7.0 8.0 0.00 0.00 0.00 57 1015.5
20260903151318 87 129 8.0 8.0 0.00 0.00 0.00 56 1015.6
20260903150817 87 227 6.0 10.0 0.00 0.00 0.00 57 1015.8
20260903150317 87 178 5.0 10.0 0.00 0.00 0.00 57 1015.8
20260903145812 87 171 4.0 4.0 0.00 0.00 0.00 58 1015.7
20260903145307 86 205 5.0 7.0 0.00 0.00 0.00 60 1015.6
20260903144807 87 234 5.0 10.0 0.00 0.00 0.00 59 1015.7
20260903144302 86 182 6.0 10.0 0.00 0.00 0.00 60 1015.8
20260903143757 86 196 4.0 5.0 0.00 0.00 0.00 61 1015.8
20260903143254 86 179 5.0 5.0 0.00 0.00 0.00 62 1015.8
20260903142749 86 200 5.0 7.0 0.00 0.00 0.00 63 1015.8
20260903142245 86 238 3.0 4.0 0.00 0.00 0.00 63 1016.1
20260903141741 84 214 2.0 4.0 0.00 0.00 0.00 65 1016.2
20260903141236 85 184 2.0 3.0 0.00 0.00 0.00 66 1016.3
20260903140731 84 178 2.0 4.0 0.00 0.00 0.00 67 1016.3
20260903140232 83 190 4.0 7.0 0.00 0.00 0.00 68 1016.4
20260903135728 83 214 3.0 4.0 0.00 0.00 0.00 69 1016.4
20260903135223 82 239 2.0 3.0 0.00 0.00 0.00 70 1016.3
20260903134721 82 179 1.0 1.0 0.00 0.00 0.00 72 1016.4
20260903134218 81 188 4.0 5.0 0.00 0.00 0.00 72 1016.5
20260903133715 80 202 3.0 3.0 0.00 0.00 0.00 73 1016.2
20260903133211 80 168 2.0 3.0 0.00 0.00 0.00 74 1016.4
20260903132712 79 172 3.0 3.0 0.00 0.00 0.00 75 1016.2
20260903132212 78 196 3.0 4.0 0.00 0.00 0.00 77 1016.2
20260903131707 77 211 3.0 4.0 0.00 0.00 0.00 78 1016.4
20260903131201 77 197 1.0 3.0 0.00 0.00 0.00 80 1016.3
20260903130656 75 208 1.0 1.0 0.00 0.00 0.00 83 1016.3
20260903130156 73 206 0.0 1.0 0.00 0.00 0.00 89 1016.2
20260903125654 71 208 1.0 1.0 0.00 0.00 0.00 92 1016.4
20260903125149 70 226 1.0 1.0 0.00 0.00 0.00 95 1016.3
20260903124644 70 251 0.0 0.0 0.00 0.00 0.00 95 1016.3
20260903124143 69 243 0.0 0.0 0.00 0.00 0.00 95 1016.1
20260903123643 69 250 0.0 0.0 0.00 0.00 0.00 95 1016.3
20260903123142 68 255 0.0 0.0 0.00 0.00 0.00 95 1016.1
20260903122641 68 255 0.0 0.0 0.00 0.00 0.00 95 1016.1
20260903122136 68 276 0.0 0.0 0.00 0.00 0.00 95 1015.8
20260903121635 68 276 0.0 0.0 0.00 0.00 0.00 95 1015.9
20260903121131 68 276 0.0 0.0 0.00 0.00 0.00 95 1015.9
20260903120630 68 276 0.0 0.0 0.00 0.00 0.00 95 1015.7
20260903120125 68 268 0.0 0.0 0.00 0.00 0.00 95 1015.8
20260903115623 68 274 0.0 0.0 0.00 0.00 0.00 95 1015.6
20260903115118 68 283 0.0 0.0 0.00 0.00 0.00 95 1015.7
20260903114614 68 287 0.0 0.0 0.00 0.00 0.00 95 1015.5
20260903114109 68 257 0.0 0.0 0.00 0.00 0.00 94 1015.7
20260903113604 68 276 0.0 0.0 0.00 0.00 0.00 94 1015.7
20260903113101 68 275 0.0 0.0 0.00 0.00 0.00 94 1015.8
20260903112557 68 286 0.0 0.0 0.00 0.00 0.00 94 1015.6
20260903112056 68 277 0.0 0.0 0.00 0.00 0.00 94 1015.7
20260903111555 69 277 0.0 0.0 0.00 0.00 0.00 94 1015.7
20260903111051 69 280 0.0 0.0 0.00 0.00 0.00 94 1015.9
20260903110547 69 280 0.0 0.0 0.00 0.00 0.00 94 1015.6
20260903110042 69 272 0.0 0.0 0.00 0.00 0.00 94 1015.6
20260903105537 69 264 0.0 0.0 0.00 0.00 0.00 94 1015.7
20260903105032 69 263 0.0 0.0 0.00 0.00 0.00 94 1015.7
20260903104531 69 272 0.0 0.0 0.00 0.00 0.00 93 1015.5
20260903104027 69 254 0.0 0.0 0.00 0.00 0.00 93 1015.5
20260903103523 69 277 0.0 0.0 0.00 0.00 0.00 93 1015.4
20260903103019 69 266 0.0 0.0 0.00 0.00 0.00 93 1015.5
20260903102514 69 271 0.0 0.0 0.00 0.00 0.00 93 1015.6
20260903102013 69 278 0.0 0.0 0.00 0.00 0.00 93 1015.6
20260903101508 69 288 1.0 1.0 0.00 0.00 0.00 93 1015.5
20260903101004 70 251 0.0 0.0 0.00 0.00 0.00 92 1015.7
20260903100459 70 274 0.0 0.0 0.00 0.00 0.00 92 1015.6
20260903095956 70 265 0.0 0.0 0.00 0.00 0.00 92 1015.6
20260903095456 70 263 0.0 0.0 0.00 0.00 0.00 92 1015.6
20260903094951 70 246 0.0 0.0 0.00 0.00 0.00 91 1015.6
20260903094450 70 275 0.0 0.0 0.00 0.00 0.00 91 1015.6
20260903093947 70 273 0.0 0.0 0.00 0.00 0.00 91 1015.4
20260903093441 70 268 0.0 0.0 0.00 0.00 0.00 91 1015.4
20260903092937 70 287 0.0 0.0 0.00 0.00 0.00 91 1015.4
20260903092437 70 268 0.0 0.0 0.00 0.00 0.00 91 1015.4
20260903091936 70 270 0.0 0.0 0.00 0.00 0.00 90 1015.2
20260903091434 71 270 0.0 0.0 0.00 0.00 0.00 90 1015.4
20260903090929 71 270 0.0 0.0 0.00 0.00 0.00 90 1015.2
20260903090425 71 270 0.0 0.0 0.00 0.00 0.00 90 1015.3
20260903085924 71 270 0.0 0.0 0.00 0.00 0.00 90 1015.4
20260903085422 71 267 0.0 0.0 0.00 0.00 0.00 89 1015.3
20260903084922 71 271 0.0 0.0 0.00 0.00 0.00 89 1015.2
20260903084421 72 265 0.0 0.0 0.00 0.00 0.00 88 1015.3
20260903083916 72 265 0.0 0.0 0.00 0.00 0.00 87 1015.4
20260903083412 72 280 0.0 0.0 0.00 0.00 0.00 86 1015.3
20260903082911 72 274 0.0 0.0 0.00 0.00 0.00 86 1015.2
20260903082406 72 273 0.0 0.0 0.00 0.00 0.00 86 1015.1
20260903081901 72 259 0.0 0.0 0.00 0.00 0.00 85 1015.2
20260903081356 73 259 0.0 0.0 0.00 0.00 0.00 85 1015.0
20260903080853 73 271 0.0 0.0 0.00 0.00 0.00 84 1014.9
20260903080349 73 265 0.0 0.0 0.00 0.00 0.00 83 1014.8
20260903075849 73 263 0.0 0.0 0.00 0.00 0.00 83 1014.8
20260903075345 73 262 0.0 0.0 0.00 0.00 0.00 83 1014.9
20260903074845 74 269 0.0 0.0 0.00 0.00 0.00 82 1015.0
20260903074344 74 243 0.0 0.0 0.00 0.00 0.00 82 1014.9
20260903073840 74 234 1.0 1.0 0.00 0.00 0.00 82 1014.9
20260903073335 74 272 0.0 0.0 0.00 0.00 0.00 82 1015.0
20260903072831 74 238 0.0 0.0 0.00 0.00 0.00 82 1015.0
20260903072327 73 240 0.0 0.0 0.00 0.00 0.00 84 1014.9
20260903071824 73 238 0.0 0.0 0.00 0.00 0.00 84 1014.9
20260903071319 73 257 0.0 0.0 0.00 0.00 0.00 83 1015.0
20260903070814 74 273 0.0 0.0 0.00 0.00 0.00 83 1015.0
20260903070309 73 275 0.0 0.0 0.00 0.00 0.00 83 1014.9
20260903065804 73 264 0.0 0.0 0.00 0.00 0.00 83 1014.9
20260903065306 73 263 0.0 0.0 0.00 0.00 0.00 84 1014.7
20260903064802 73 266 0.0 0.0 0.00 0.00 0.00 85 1014.8
20260903064258 73 266 0.0 0.0 0.00 0.00 0.00 85 1014.9
20260903063754 73 246 0.0 0.0 0.00 0.00 0.00 85 1015.0
20260903063249 73 266 0.0 0.0 0.00 0.00 0.00 85 1014.8
20260903062745 73 276 0.0 0.0 0.00 0.00 0.00 85 1014.8
20260903062244 73 275 0.0 0.0 0.00 0.00 0.00 85 1015.0
20260903061741 73 266 0.0 0.0 0.00 0.00 0.00 85 1014.8
20260903061239 73 294 0.0 0.0 0.00 0.00 0.00 85 1014.9